This demonstration page uses our WeatherBlox Daily Observations layout. Learn more.

Hourly Observations for December 19, 2019

Temp ( °F °C ) Dew Point ( °F °C ) Humidity (%) Winds ( mph kmh ) Pressure ( in mb ) Visibility ( mi km ) Precip ( " mm )
12:15 am 00:15 Mostly Cloudy 25 -4 10 -12 54 54 NNW 13 20 30.29 1026 10 16.0934 0 0
12:35 am 00:35 Mostly Cloudy 25 -4 10 -12 54 54 NNW 16 26 30.3 1026 10 16.0934 0 0
12:55 am 00:55 Partly Cloudy 25 -4 9 -13 50 50 NNW 16 26 30.31 1026 10 16.0934 0 0
1:15 am 01:15 Partly Cloudy 25 -4 9 -13 50 50 NNW 23 37 30.31 1026 10 16.0934 0 0
1:35 am 01:35 Clear 23 -5 9 -13 54 54 NNW 10 17 30.33 1027 10 16.0934 0 0
1:55 am 01:55 Clear 23 -5 9 -13 54 54 NNW 20 31 30.34 1027 10 16.0934 0 0
2:15 am 02:15 Partly Cloudy 23 -5 9 -13 54 54 NNW 18 30 30.36 1028 10 16.0934 0 0
2:35 am 02:35 Clear 23 -5 9 -13 54 54 NNW 14 22 30.36 1028 10 16.0934 0 0
2:55 am 02:55 Clear 23 -5 9 -13 54 54 NNW 17 28 30.37 1028 10 16.0934 0 0
3:15 am 03:15 Clear 23 -5 9 -13 54 54 NNW 17 28 30.37 1028 10 16.0934 0 0
3:35 am 03:35 Clear 23 -5 9 -13 54 54 NNW 16 26 30.36 1028 10 16.0934 0 0
3:55 am 03:55 Clear 23 -5 9 -13 54 54 N 7 11 30.38 1029 10 16.0934 0 0
4:15 am 04:15 Clear 21 -6 9 -13 58 58 NNW 9 15 30.39 1029 10 16.0934 0 0
4:35 am 04:35 Clear 21 -6 10 -12 63 63 NNW 12 19 30.39 1029 10 16.0934 0 0
4:55 am 04:55 Clear 21 -6 10 -12 63 63 N 8 13 30.41 1030 10 16.0934 0 0
5:15 am 05:15 Clear 21 -6 10 -12 63 63 NNW 7 11 30.42 1030 10 16.0934 0 0
5:35 am 05:35 Clear 21 -6 10 -12 63 63 NNW 8 13 30.43 1031 10 16.0934 0 0
5:55 am 05:55 Clear 21 -6 10 -12 63 63 N 6 9 30.43 1031 10 16.0934 0 0
6:15 am 06:15 Clear 21 -6 10 -12 63 63 NNW 7 11 30.44 1031 10 16.0934 0 0
6:35 am 06:35 Clear 21 -6 12 -11 68 68 NNW 6 9 30.46 1032 10 16.0934 0 0
6:55 am 06:55 Clear 19 -7 12 -11 73 73 NNW 7 11 30.46 1032 10 16.0934 0 0
7:15 am 07:15 Clear 19 -7 12 -11 73 73 N 5 7 30.48 1032 10 16.0934 0 0
7:35 am 07:35 Sunny 19 -7 12 -11 73 73 N 7 11 30.49 1033 10 16.0934 0 0
7:55 am 07:55 Sunny 19 -7 12 -11 73 73 N 6 9 30.5 1033 10 16.0934 0 0
8:15 am 08:15 Sunny 21 -6 12 -11 68 68 NW 3 6 30.51 1033 10 16.0934 0 0
8:35 am 08:35 Sunny 21 -6 10 -12 63 63 NNW 3 6 30.51 1033 10 16.0934 0 0
8:55 am 08:55 Sunny 23 -5 12 -11 63 63 NW 7 11 30.52 1034 10 16.0934 0 0
9:15 am 09:15 Sunny 23 -5 12 -11 63 63 NNW 5 7 30.52 1034 10 16.0934 0 0
9:35 am 09:35 Sunny 25 -4 12 -11 59 59 WNW 10 17 30.53 1034 10 16.0934 0 0
9:55 am 09:55 Sunny 27 -3 12 -11 54 54 W 13 20 30.54 1034 10 16.0934 0 0
10:15 am 10:15 Sunny 27 -3 10 -12 50 50 W 9 15 30.54 1034 10 16.0934 0 0
10:35 am 10:35 Sunny 27 -3 12 -11 54 54 WNW 9 15 30.54 1034 10 16.0934 0 0
10:55 am 10:55 Sunny 28 -2 12 -11 51 51 WNW 13 20 30.53 1034 10 16.0934 0 0
11:15 am 11:15 Sunny 28 -2 12 -11 51 51 WNW 13 20 30.52 1033 10 16.0934 0 0
11:35 am 11:35 Sunny 28 -2 12 -11 51 51 WNW 8 13 30.51 1033 10 16.0934 0 0
11:55 am 11:55 Sunny 30 -1 12 -11 47 47 NW 10 17 30.49 1033 10 16.0934 0 0
12:15 pm 12:15 Sunny 30 -1 12 -11 47 47 NW 16 26 30.48 1032 10 16.0934 0 0
12:35 pm 12:35 Sunny 30 -1 12 -11 47 47 NNW 16 26 30.47 1032 10 16.0934 0 0
12:55 pm 12:55 Sunny 32 0 12 -11 44 44 NW 7 11 30.45 1031 10 16.0934 0 0
1:15 pm 13:15 Sunny 32 0 12 -11 44 44 N 8 13 30.44 1031 10 16.0934 0 0
1:35 pm 13:35 Sunny 32 0 12 -11 44 44 NNW 6 9 30.43 1031 10 16.0934 0 0
1:55 pm 13:55 Sunny 32 0 12 -11 44 44 NNW 3 6 30.43 1031 10 16.0934 0 0
2:15 pm 14:15 Sunny 32 0 12 -11 44 44 NW 12 19 30.44 1031 10 16.0934 0 0
2:35 pm 14:35 Sunny 32 0 12 -11 44 44 NW 8 13 30.45 1031 10 16.0934 0 0
2:55 pm 14:55 Sunny 32 0 12 -11 44 44 NNW 8 13 30.44 1031 10 16.0934 0 0
3:15 pm 15:15 Sunny 32 0 12 -11 44 44 NW 8 13 30.45 1031 10 16.0934 0 0
3:35 pm 15:35 Sunny 32 0 12 -11 44 44 NNW 7 11 30.45 1031 10 16.0934 0 0
3:55 pm 15:55 Sunny 32 0 12 -11 44 44 N 5 7 30.45 1031 10 16.0934 0 0
4:15 pm 16:15 Sunny 32 0 12 -11 44 44 N 3 6 30.45 1031 10 16.0934 0 0
4:35 pm 16:35 Sunny 32 0 12 -11 44 44 Calm 30.45 1031 10 16.0934 0 0
4:55 pm 16:55 Clear 32 0 12 -11 44 44 Calm 30.46 1032 10 16.0934 0 0
5:15 pm 17:15 Clear 30 -1 14 -10 51 51 NE 5 7 30.46 1032 10 16.0934 0 0
5:35 pm 17:35 Clear 30 -1 14 -10 51 51 E 3 6 30.46 1032 10 16.0934 0 0
5:55 pm 17:55 Clear 30 -1 14 -10 51 51 ENE 3 6 30.46 1032 10 16.0934 0 0
6:15 pm 18:15 Clear 30 -1 14 -10 51 51 Calm 30.46 1032 10 16.0934 0 0
6:35 pm 18:35 Clear 28 -2 16 -9 59 59 Calm 30.48 1032 10 16.0934 0 0
6:55 pm 18:55 Clear 28 -2 14 -10 55 55 Calm 30.48 1032 10 16.0934 0 0
7:15 pm 19:15 Clear 27 -3 16 -9 64 64 Calm 30.49 1032 10 16.0934 0 0
7:35 pm 19:35 Clear 27 -3 16 -9 64 64 Calm 30.5 1033 10 16.0934 0 0
7:55 pm 19:55 Clear 27 -3 16 -9 64 64 Calm 30.5 1033 10 16.0934 0 0
8:15 pm 20:15 Clear 27 -3 16 -9 64 64 Calm 30.5 1033 10 16.0934 0 0
8:35 pm 20:35 Clear 25 -4 18 -8 74 74 Calm 30.5 1033 10 16.0934 0 0
8:55 pm 20:55 Clear 23 -5 18 -8 80 80 Calm 30.5 1033 10 16.0934 0 0
9:15 pm 21:15 Clear 25 -4 18 -8 74 74 Calm 30.5 1033 10 16.0934 0 0
9:35 pm 21:35 Clear 23 -5 18 -8 80 80 Calm 30.5 1033 10 16.0934 0 0
9:55 pm 21:55 Clear 23 -5 18 -8 80 80 Calm 30.5 1033 10 16.0934 0 0
10:15 pm 22:15 Clear 21 -6 18 -8 86 86 SSW 3 6 30.5 1033 10 16.0934 0 0
10:35 pm 22:35 Clear 21 -6 19 -7 93 93 Calm 30.49 1033 10 16.0934 0 0
10:55 pm 22:55 Clear 21 -6 18 -8 86 86 Calm 30.49 1033 10 16.0934 0 0
11:15 pm 23:15 Clear 23 -5 18 -8 80 80 Calm 30.49 1033 10 16.0934 0 0
11:35 pm 23:35 Clear 21 -6 18 -8 86 86 Calm 30.49 1033 10 16.0934 0 0
11:55 pm 23:55 Clear 21 -6 19 -7 93 93 Calm 30.49 1033 10 16.0934 0 0

Powered by AerisWeather